Temp
22 23 22 22 22 21 21 22 23 23 24 24 25 25 25 25 25 24 24 23 23 23 23 23 23 23 23 24 24 24 23 23 23 23 23 23 23 22 22 22 21 22 21
23 23 22 23 22 22 21 22 22 23 24 25 25 25 25 24 23 23 22 23 23 22 23 23 23 23 23 23 23 23 23 23 23 22 23 22 22 22 22 22 22 22 21
23 23 22 23 22 23 23 22 21 22 22 23 24 24 23 23 23 22 22 22 22 22 22 22 22 22 22 22 22 22 22 23 22 22 22 22 23 22 22 22 22 22 22
23 22 23 23 23 23 24 23 22 21 21 22 22 23 23 22 22 22 22 22 22 22 22 22 22 22 22 22 22 22 22 22 22 22 22 22 23 23 22 22 22 22 22
22 23 23 23 23 23 24 23 23 22 22 22 22 22 22 21 21 22 21 22 22 22 22 22 22 22 23 23 22 22 23 23 22 23 22 23 23 24 23 22 22 22 22
22 23 23 23 23 23 24 23 23 23 23 22 22 21 21 21 21 21 22 22 22 22 22 22 22 22 22 23 23 23 23 23 23 24 23 23 24 24 24 23 23 22 21
23 23 23 23 23 23 23 23 22 22 22 22 22 21 21 21 21 21 21 21 21 22 22 21 21 21 21 21 21 22 22 22 23 24 24 23 23 23 23 23 22 22 22
24 23 23 23 23 23 23 23 22 22 22 22 21 21 21 21 21 22 21 22 21 22 22 22 21 21 21 21 21 21 22 22 21 23 23 24 24 23 24 24 23 22 22
25 24 23 23 23 23 23 22 23 22 22 22 22 21 21 21 21 22 22 23 23 23 23 23 22 22 21 21 21 22 22 22 22 24 24 23 24 24 25 24 24 23 23
24 24 24 23 22 23 23 23 23 23 23 22 22 21 21 22 22 23 23 24 24 24 24 23 23 23 23 22 22 22 22 21 23 24 24 23 24 24 24 24 24 24 23
24 23 23 23 23 23 22 22 22 23 22 22 21 21 21 22 23 24 24 25 25 24 24 24 23 22 22 22 23 23 22 22 23 23 24 24 25 25 25 25 24 24 23
25 24 24 23 23 23 22 23 23 23 22 22 22 22 23 24 24 24 25 25 25 25 24 23 23 23 23 22 23 24 23 23 23 24 24 24 24 25 25 25 24 24 23
26 25 25 24 24 23 23 24 24 23 23 24 24 23 24 24 25 25 25 26 26 25 25 24 25 24 23 22 22 23 24 24 24 24 24 25 25 25 25 25 25 25 24
27 27 26 26 25 25 25 25 25 24 24 24 25 24 24 24 25 26 26 26 27 26 25 26 26 25 24 21 22 22 22 23 22 24 25 25 26 26 25 25 25 25 24
29 28 27 27 27 26 26 26 26 25 25 25 25 25 25 25 26 26 27 27 27 26 25 25 26 25 23 23 23 24 24 24 25 24 25 26 26 26 25 25 25 25 24
31 29 29 28 28 28 27 27 27 27 26 26 26 26 26 26 26 26 26 27 28 27 27 27 27 25 25 24 27 26 27 26 25 24 23 24 24 25 25 24 24 24 24
32 32 30 29 29 29 28 28 28 29 28 29 28 27 27 26 26 26 27 27 27 27 27 27 26 25 25 25 26 26 26 25 26 25 23 25 26 25 25 25 24 24 24
32 32 30 29 29 29 28 28 28 28 28 28 29 29 28 27 27 27 27 27 27 27 28 27 27 26 26 25 25 26 25 25 27 26 23 23 24 25 26 28 25 24 24
32 32 30 29 29 29 28 27 27 27 28 28 28 28 28 28 27 27 26 26 26 27 28 28 27 27 27 26 26 24 26 26 26 25 25 22 21 23 25 27 26 25 24
32 32 32 30 29 29 28 27 26 26 27 27 28 28 28 28 27 27 27 27 27 27 27 27 27 27 28 27 27 26 27 26 25 26 28 24 24 23 22 23 25 25 25
32 32 32 31 28 28 27 26 26 26 27 27 28 29 28 28 28 27 27 27 27 27 27 28 27 27 27 27 26 27 23 25 26 26 25 24 22 25 23 24 25 26 26
32 32 31 31 29 28 27 27 26 27 27 27 28 28 29 28 28 27 27 27 27 27 27 28 27 27 27 27 27 25 22 21 23 25 25 25 25 26 26 24 24 26 26
31 31 31 31 30 28 28 27 27 27 27 28 28 29 29 29 29 28 28 27 27 27 28 27 28 27 27 27 27 26 23 22 22 25 26 27 25 27 25 26 26 26 26
31 31 31 31 30 29 28 27 27 27 27 28 29 29 29 29 29 29 29 28 27 27 27 27 27 27 27 26 27 27 27 26 21 22 24 26 26 26 26 26 27 27 26
32 31 30 30 30 29 29 28 28 28 28 29 29 29 30 29 29 29 29 28 28 27 27 27 27 27 26 26 26 26 26 26 25 22 21 23 26 27 26 27 26 26 26
33 31 29 29 29 29 28 28 28 28 28 28 29 29 30 30 30 29 29 29 28 28 27 27 27 27 26 26 26 26 26 25 24 23 20 22 23 26 27 27 26 27 27
Height
800 802 805 807 810 813 815 816 817 820 822 824 826 827 829 830 832 834 836 836 837 838 839 840 840 840 841 841 841 842 843 842 843 845 846 846 847 847 848 850 849 850 851
794 800 803 806 810 814 816 818 820 822 824 825 827 829 831 833 835 836 837 838 839 840 840 841 841 841 840 841 841 841 842 842 844 844 844 846 847 848 849 850 851 850 852
793 799 803 807 810 813 817 820 823 825 826 828 829 831 832 834 836 837 838 839 840 841 841 842 842 842 842 842 842 842 842 841 842 842 843 843 845 847 849 850 850 849 851
793 799 803 807 811 814 817 820 823 826 828 830 832 833 834 835 836 837 839 840 841 842 842 842 842 842 843 843 844 843 841 841 842 841 843 841 841 843 847 849 850 848 850
796 799 803 807 811 815 818 822 824 826 828 830 832 834 835 836 837 838 839 840 840 842 842 842 842 843 843 844 845 844 843 842 841 840 842 841 841 840 843 846 849 848 848
796 799 803 808 812 815 818 822 825 828 830 831 833 834 835 837 838 838 839 839 840 841 842 843 843 843 844 844 845 845 844 844 843 841 841 841 841 841 843 845 846 847 848
795 800 804 808 812 816 820 823 825 828 830 832 834 835 836 837 837 839 839 840 840 842 843 844 844 843 843 844 844 844 842 843 843 842 843 843 843 843 843 844 844 844 847
794 800 805 809 812 816 820 823 826 828 829 830 832 834 835 836 837 838 839 840 841 842 843 844 844 844 843 843 843 843 842 842 844 844 843 842 843 844 844 844 844 844 846
794 799 804 808 812 816 819 822 824 826 827 829 831 832 833 834 835 837 837 838 839 840 841 841 841 841 841 840 841 840 840 841 842 841 841 841 842 845 845 844 844 845 846
795 799 804 808 812 815 818 821 823 825 826 828 829 831 831 832 834 835 837 836 837 838 839 840 841 841 839 837 836 838 838 838 840 839 838 840 842 843 843 842 843 844 844
795 799 803 807 811 815 818 820 823 824 826 827 829 830 830 831 832 834 835 835 836 834 835 836 840 837 835 833 831 832 834 833 834 837 838 838 836 837 838 837 838 840 842
792 797 801 805 809 814 817 819 821 823 824 825 827 828 830 830 831 833 833 832 832 833 835 835 834 833 832 833 833 837 837 833 832 832 835 836 836 835 836 835 834 835 838
787 793 798 804 809 812 815 817 819 820 821 823 824 826 828 828 829 832 832 831 831 832 831 829 830 833 833 834 836 835 835 835 831 830 831 833 832 831 832 832 831 832 833
785 789 794 799 804 808 812 814 815 816 817 819 820 823 825 826 827 830 830 830 829 829 830 828 830 829 825 831 832 832 828 829 826 827 826 825 826 826 828 830 828 828 830
782 786 789 794 799 804 808 810 812 812 813 814 817 819 822 824 825 827 828 828 828 828 830 828 828 829 828 827 824 818 821 821 819 820 817 817 820 821 825 826 825 825 826
777 781 785 790 794 799 803 806 807 809 811 812 814 816 819 821 824 825 826 826 826 827 827 826 824 825 826 825 819 814 812 817 816 815 804 811 818 821 821 823 821 820 821
774 779 781 787 792 796 801 803 806 808 809 811 812 814 817 820 821 823 824 824 825 825 824 823 823 821 823 822 819 817 814 812 810 813 816 813 809 814 816 815 814 814 816
769 774 778 783 789 793 797 801 803 805 807 809 811 812 814 817 818 819 821 822 823 823 823 824 823 820 819 819 817 815 814 810 810 811 816 812 806 810 815 815 812 810 810
764 770 774 779 784 788 792 796 800 803 805 806 808 809 809 812 814 816 817 818 820 821 819 820 820 818 817 817 815 816 812 809 811 810 807 811 803 818 814 813 813 808 808
760 765 770 773 778 783 789 794 799 803 804 804 805 807 808 809 811 813 815 816 817 818 818 818 818 818 816 815 814 812 811 809 807 804 797 800 810 810 797 811 810 808 808
757 762 766 770 775 781 786 790 795 797 799 800 802 803 805 807 808 809 812 814 815 816 816 816 816 816 815 814 814 812 812 808 802 798 798 805 813 806 805 806 808 804 802
753 758 763 767 771 777 781 786 791 794 797 799 800 801 803 804 805 806 807 809 811 812 814 814 814 813 814 813 812 811 811 812 803 796 796 797 797 797 798 802 798 799 799
748 753 758 764 770 773 778 784 789 792 795 796 797 797 798 799 801 802 804 805 806 808 808 810 810 810 810 810 809 809 811 812 805 798 794 793 797 795 795 794 791 795 795
740 747 753 759 765 771 777 780 784 787 790 791 792 793 794 795 796 796 797 799 800 801 803 804 805 805 806 807 807 805 805 803 806 806 799 796 797 794 794 792 791 790 791
730 736 744 753 760 766 773 778 782 785 785 786 788 789 790 790 791 792 791 792 794 795 795 796 798 799 799 801 803 803 802 801 800 801 803 798 796 793 790 789 791 788 791
727 734 739 746 754 761 767 773 777 779 781 782 784 786 786 786 785 785 786 786 786 788 789 789 790 792 793 795 797 798 798 798 797 798 798 794 793 789 789 788 785 785 787
Wind_Speed
26 27 25 26 25 23 22 22 22 22 23 23 22 21 20 20 19 17 15 14 12 11 9 8 6 5 4 3 3 2 3 3 4 6 6 6 8 9 11 12 11 9 11
34 30 28 27 26 24 23 23 23 23 22 21 19 17 16 15 14 13 12 10 9 8 7 6 4 3 2 2 2 2 2 1 3 4 4 5 6 7 9 7 8 10 10
36 32 29 28 26 25 25 23 21 21 20 19 17 15 14 13 12 11 9 8 7 5 4 3 2 2 1 2 2 2 2 2 4 5 6 6 5 5 4 6 9 10 10
36 33 31 29 27 26 25 24 22 20 18 16 15 13 12 12 11 10 8 6 5 4 2 2 2 1 1 0 1 1 1 1 3 4 4 8 6 6 7 7 10 9 10
32 33 32 29 27 26 25 23 22 20 17 14 13 11 11 11 10 9 7 6 5 4 4 4 3 3 2 2 2 3 3 2 3 5 5 8 5 6 10 9 9 9 10
32 33 32 29 27 26 24 22 20 17 14 12 11 10 10 9 9 8 7 6 5 5 6 5 5 5 5 5 5 6 7 6 5 7 6 6 9 7 9 11 11 9 12
34 32 31 29 26 24 23 21 18 17 15 13 11 10 9 9 9 8 7 7 7 6 6 6 7 8 8 8 8 8 9 9 8 8 9 7 10 14 13 13 14 12 12
34 35 31 28 26 25 23 21 19 18 16 14 13 11 11 10 9 9 9 9 8 8 8 8 10 11 11 11 10 10 10 11 11 11 12 12 13 17 8 11 15 15 14
34 35 31 28 26 24 22 21 19 17 15 13 12 12 12 11 11 10 10 10 10 9 10 10 10 11 12 12 12 12 12 12 13 13 13 12 17 16 10 11 14 16 15
34 34 31 28 25 24 22 20 19 17 15 13 12 12 12 12 12 11 10 11 9 7 8 9 11 12 13 14 15 15 15 15 15 16 17 13 18 19 15 14 14 14 16
32 30 28 27 26 24 22 20 18 16 15 14 14 13 13 13 13 11 10 8 6 7 8 9 10 13 15 18 18 16 18 19 19 18 17 16 15 23 18 15 15 15 16
33 33 27 25 25 24 20 20 19 17 17 17 16 15 13 12 11 12 15 10 11 8 6 9 9 15 17 19 21 15 19 21 18 17 16 20 20 20 20 17 17 16 17
37 34 31 25 23 24 23 20 20 18 15 16 15 13 11 10 11 15 19 14 10 13 8 6 12 10 16 21 24 18 18 25 21 19 18 23 24 25 25 21 18 17 16
34 36 37 29 27 26 27 28 21 21 20 18 17 18 16 15 14 17 11 17 14 12 12 11 7 8 15 17 17 17 15 21 17 20 20 24 28 27 26 23 19 17 17
32 35 39 35 31 29 28 29 23 24 25 23 22 18 21 18 14 9 10 11 12 15 13 14 9 4 5 7 4 17 22 20 19 21 25 23 28 24 25 22 19 17 16
31 36 36 39 32 31 28 27 24 19 29 25 27 21 19 15 13 12 14 13 10 11 10 15 13 10 8 8 10 17 13 21 25 18 12 13 17 23 20 19 17 17 17
31 28 35 39 32 26 27 17 19 17 8 19 14 18 21 17 14 14 12 9 9 12 6 12 6 5 13 10 13 18 16 19 14 14 10 21 21 27 21 21 19 17 18
35 31 33 36 35 29 23 19 18 20 14 9 16 15 16 19 14 16 13 13 12 13 12 8 7 2 8 11 16 15 16 18 15 12 12 16 18 28 26 9 17 18 18
40 34 34 35 35 31 29 23 22 21 20 15 11 18 21 20 17 14 16 14 14 15 15 13 13 9 9 10 14 15 12 14 14 9 8 21 23 21 23 16 16 16 19
41 38 35 35 37 32 28 28 19 20 20 18 17 14 15 24 19 13 12 13 14 16 13 15 15 11 11 13 13 13 12 12 11 10 10 23 8 12 24 33 19 13 19
39 40 36 33 33 33 30 28 26 24 22 21 19 18 13 19 18 18 16 14 16 18 19 17 14 10 9 11 9 10 6 2 5 11 14 16 7 10 8 23 24 14 16
35 40 37 33 30 35 33 30 26 26 24 22 21 21 19 18 18 18 20 21 17 19 16 12 13 10 10 12 5 3 2 3 2 10 13 7 11 3 13 23 22 15 19
35 40 40 35 33 32 32 28 22 19 24 22 26 25 25 25 26 24 23 21 23 22 21 15 12 12 14 13 9 5 2 2 2 8 13 12 7 11 8 15 16 17 19
36 41 41 40 34 33 30 27 26 23 22 25 21 27 26 26 27 28 27 27 28 23 22 22 18 16 17 16 11 8 10 9 3 3 6 12 16 12 8 8 17 22 21
37 42 43 42 38 35 33 27 27 27 23 22 16 18 18 21 28 29 31 30 28 28 29 27 25 21 14 14 14 12 13 8 10 5 3 4 9 17 16 14 15 19 21
31 34 37 41 40 36 35 34 26 24 25 18 19 23 22 24 22 27 33 35 33 31 31 30 26 24 22 20 17 15 13 8 7 9 4 7 7 15 15 15 21 18 14
Wind_Direction
151 147 148 142 138 138 136 131 128 124 125 124 119 116 115 115 117 119 120 119 120 121 121 120 125 122 109 102 88 70 58 60 74 74 91 107 110 109 118 125 111 133 127
151 150 150 146 143 142 139 136 134 130 130 130 129 128 127 127 126 125 125 126 126 123 121 125 122 122 113 106 107 88 80 83 95 109 108 104 106 122 135 147 160 159 137
148 150 150 148 148 146 142 140 138 135 133 132 133 136 137 138 137 138 139 136 134 140 137 137 127 110 105 92 87 78 89 153 148 170 158 157 142 137 161 164 160 159 152
149 149 150 150 151 149 146 145 146 143 140 138 139 143 148 150 149 151 155 155 155 157 172 183 175 180 180 168 64 65 159 133 171 173 182 222 255 233 194 186 180 166 161
143 152 151 152 151 151 149 150 150 152 153 150 149 152 155 158 158 159 168 177 188 199 215 216 221 232 250 273 289 280 267 240 201 205 198 263 224 145 185 197 202 180 168
147 155 153 153 153 153 154 157 158 160 156 155 161 164 166 165 171 180 189 201 213 215 227 234 244 255 265 274 276 275 273 266 255 229 236 208 185 177 185 197 197 183 183
153 155 155 155 155 156 157 157 157 159 165 172 177 179 181 183 190 199 207 218 231 234 246 257 264 268 271 272 270 271 271 269 262 247 191 250 233 192 191 202 193 191 194
156 157 156 160 160 161 163 166 169 174 178 182 186 190 197 203 208 211 217 229 239 249 256 266 272 275 276 274 270 268 267 266 264 254 261 288 235 203 203 204 198 199 196
156 157 160 163 163 165 167 171 175 181 184 190 197 201 208 214 217 223 227 235 245 255 264 270 270 271 274 275 273 267 261 256 257 250 246 280 221 215 223 206 207 203 203
152 160 165 167 169 171 174 179 182 186 187 192 197 202 208 215 220 225 238 249 257 267 282 283 283 285 284 279 272 269 262 255 250 246 232 231 228 225 218 206 211 211 210
152 162 166 173 176 178 181 182 187 191 192 200 205 207 211 219 226 229 250 257 253 260 274 287 297 287 285 279 270 260 259 252 252 254 244 241 241 220 218 216 210 212 217
154 162 170 177 181 178 185 191 191 195 201 205 210 211 220 232 234 242 261 264 261 261 279 264 288 297 283 284 281 274 268 259 256 244 249 254 235 225 226 225 217 215 219
162 163 174 179 182 182 185 193 193 201 206 208 212 207 222 239 248 253 257 247 260 244 257 272 303 328 324 311 295 279 287 270 268 252 252 256 244 237 230 230 222 224 221
163 168 176 178 182 189 190 202 199 198 207 207 203 206 218 238 261 258 240 236 250 262 256 261 305 17 335 330 330 280 265 261 266 261 256 254 242 235 235 233 221 221 225
170 171 176 180 183 191 196 200 203 203 211 217 213 207 215 223 241 231 239 257 241 258 236 257 279 247 222 227 247 296 279 275 263 257 261 264 233 230 225 232 229 226 228
175 174 177 182 182 188 197 195 203 208 218 220 219 213 210 205 211 244 266 243 264 258 253 249 273 273 260 213 291 266 293 268 283 269 276 232 236 224 226 230 238 238 235
179 179 181 181 178 176 191 184 201 219 209 205 216 215 218 209 214 232 260 280 254 302 233 226 260 243 267 257 260 260 280 298 296 281 275 229 218 215 240 233 234 239 244
179 179 174 175 180 186 184 203 201 214 218 233 219 229 216 210 213 228 242 264 258 284 281 282 243 223 272 265 282 278 270 287 294 311 353 243 209 238 243 252 239 230 236
179 181 173 180 184 190 198 200 210 209 221 238 244 227 218 212 215 228 225 236 255 268 275 274 242 264 276 285 286 271 282 274 289 313 347 319 262 245 241 284 232 222 224
179 184 184 184 187 191 197 204 208 216 224 241 245 250 234 217 222 225 227 249 245 262 265 270 250 258 276 302 298 300 307 281 274 248 238 247 226 257 257 255 217 225 228
183 185 186 184 187 188 189 193 202 214 225 232 236 244 258 225 225 222 228 240 257 269 266 268 251 242 277 295 290 303 83 134 292 255 269 252 158 193 275 246 227 226 220
179 183 185 187 183 190 192 198 202 211 225 231 231 236 236 233 225 226 234 235 248 258 271 274 228 251 272 281 263 251 294 140 311 280 262 298 243 166 220 252 235 217 206
174 183 187 188 189 191 196 200 205 222 227 236 234 233 234 234 238 241 241 244 247 252 264 266 255 250 263 271 276 240 331 249 279 270 297 297 289 284 245 233 226 220 222
181 185 190 192 192 195 192 191 198 208 219 235 241 235 239 239 241 242 245 245 243 245 250 260 265 267 259 249 275 270 263 257 171 307 277 284 294 294 281 233 239 240 229
179 181 188 191 194 196 197 203 213 222 230 236 246 247 252 250 245 247 246 246 246 246 246 248 251 253 256 240 243 258 280 259 263 219 268 289 296 295 299 265 250 235 243
178 176 181 186 192 196 201 207 211 220 226 231 239 248 253 263 269 252 249 245 245 246 248 247 247 249 254 240 236 243 246 244 244 232 238 256 247 288 282 273 246 235 234